Tracking 30415 objects as of 14-May-2025
HD Live streaming from Space Station
objects crossing your sky now

INTELSAT 3-F7

Track INTELSAT 3-F7 now!
INTELSAT 3-F7 is classified as:


NORAD ID: 4376
Int'l Code: 1970-032A
Perigee: 35,771.2 km
Apogee: 35,794.5 km
Inclination: 1.4 °
Period: 1,435.5 minutes
Semi major axis: 42153 km
RCS: 0.003 m2 (small)
Launch date: April 23, 1970
Source: International Telecommunications Satellite Organization (ITSO)
Launch site: AIR FORCE EASTERN TEST RANGE (AFETR)
Your satellite tracking list
Your tracking list is empty




NASA's NSSDC Master Catalog

Two Line Element Set (TLE):
1 04376U 70032A   25133.60248406  .00000085  00000-0  00000-0 0  9999
2 04376   1.4007  97.7013 0002763 232.9837 126.7449  1.00310634 43359
Source of the keplerian elements: AFSPC